Portada
METAR-TAF:

METAR-TAF

Aeroports :

Mount Gambier, Austràlia

latitud: 37-44-44S, longitud: 140-47-07E, altitud: 65 m

Observació

L'informe es va fer fa 27 minuts, a les 17:00 UTC
Vent 10 kt del Nord/Nord-Est
Temperatura 18°C
Humitat 42%
Pressió 1020 hPa
Visibilitat 10 km o més
Cel cobert a una alçada de 10500 ft

METAR: YMTG 191700Z AUTO 03010KT 9999 // OVC105 18/05 Q1020

Hora: 02:57 (17:27 UTC)


TAF: manca

Observacions i pronòstics meteorològics de més de 4000 aeroports (METAR i TAF).

Les estacions disponibles són els punts grocs i vermells al mapa.

Posi el ratolí al punt desitjat per veure el nom de l'estació.

Feu clic per veure les observacions i els pronòstics meteorològics.

Per canviar el mapa: feu clic els botons verds amb una creu de color negre per apropar; al botó verd amb un guió per allunyar la imatge; o en les fletxes verdes per a mapes adjacents.


METAR-TAF: